Regional Weather Roundup
Issued by NWS Charleston, SC

Current Version | Previous Version | Text Only | Print | Product List | Glossary Off
Versions: 1 2 3 4 5 6 7 8 9 10 11 12 13 14 15 16 17 18 19 20 21 22 23 24 25 26 27 28 29 30 31 32 33 34 35 36 37 38 39 40 41 42 43 44 45 46 47 48 49 50
000 ASUS42 KCHS 030512 RWRCHS REGIONAL WEATHER ROUNDUP NATIONAL WEATHER SERVICE CHARLESTON SC 100 AM EDT WED JUN 03 2015 NOTE: "FAIR" INDICATES FEW OR NO CLOUDS BELOW 12,000 FEET WITH NO SIGNIFICANT WEATHER AND/OR OBSTRUCTIONS TO VISIBILITY. NOT ALL STATIONS ARE QUALITY CONTROLLED BY THE NATIONAL WEATHER SERVICE. USE DATA WITH CAUTION...ESPECIALLY DEWPOINT OBSERVATIONS. SCZ027-030-031-034>040-042>050-030600- ...SOUTHEAST SOUTH CAROLINA... CITY SKY/WX TMP DP RH WIND PRES REMARKS N CHARLESTON CLOUDY 73 70 90 CALM 29.97S WATERFRONT PAR N/A 78 73 84 SW5 29.94S MOUNT PLEASANT NOT AVBL JOHNS ISLAND NOT AVBL PINOPOLIS N/A 75 72 88 CALM 29.90R MONCKS CORNER NOT AVBL SUMMERVILLE NOT AVBL BEAUFORT MCAS CLOUDY 73 70 90 N5 29.96F BEAUFORT ARPT NOT AVBL HILTON HEAD IS NOT AVBL WALTERBORO NOT AVBL ALLENDALE NOT AVBL ...SOUTHERN MIDLANDS AND PEE DEE... CITY SKY/WX TMP DP RH WIND PRES REMARKS GEORGETOWN NOT AVBL KINGSTREE NOT AVBL ORANGEBURG CLOUDY 69 65 86 E3 29.99S BARNWELL NOT AVBL AIKEN FAIR 68 59 73 CALM 30.02R MANNING NOT AVBL COLUMBIA CLOUDY 68 65 90 N5 29.98R SUMTER CLOUDY 67 63 86 E3 29.97S FLORENCE RAIN 67 65 93 E8 29.99F MYRTLE BEACH MOCLDY 75 70 83 SW3 30.00S N MYRTLE BEACH MOCLDY 77 71 82 W9 29.98S THUNDER $$ GAZ063-065-086>088-099>101-113>116-118-119-134>141-150-030600- ...SOUTHEAST GEORGIA... CITY SKY/WX TMP DP RH WIND PRES REMARKS SAVANNAH ARPT CLOUDY 72 69 90 W3 29.97F HUNTER AAF CLOUDY 73 70 88 S5 29.95S FORT STEWART CLOUDY 71 67 87 CALM 29.96R STATESBORO CLOUDY 69 32 25 CALM 29.98S SYLVANIA CLOUDY 70 67 92 NW3 29.98F CLAXTON FOG 68 68 100 CALM 29.98S VSB 1 ...CSRA...CENTRAL AND FAR SOUTHEAST GEORGIA... CITY SKY/WX TMP DP RH WIND PRES REMARKS THOMSON CLOUDY 73 70 92 S5 30.01S AUGUSTA-BUSH CLOUDY 68 66 93 CALM 29.95F AUGUSTA-DANIEL CLOUDY 70 65 84 S7 29.98R SWAINSBORO FAIR N/A N/A N/A SE3 29.99S VIDALIA MOCLDY 70 68 94 CALM 29.98F EASTMAN MOCLDY 71 71 100 W3 30.00R HAZLEHURST FAIR 71 71 100 CALM 29.97R ALMA CLOUDY 70 68 93 CALM 29.97R WAYCROSS CLOUDY 71 69 91 CALM 29.97S JESUP FAIR 73 70 88 CALM 29.99R BAXLEY FAIR 72 70 94 CALM 29.98R BRUNSWICK CLOUDY 70 68 94 SE5 29.99F SAINT SIMONS NOT AVBL $$ SCZ027-028-034-036>038-045-046-048>050-GAZ119-141-030600- ...LAKE AND SUPPLEMENTAL COASTAL OBSERVATIONS... STATION/POSITION TIME TEMP WIND PRES WAVE SWELL AIR SEA DIR/SP/G HT/PER HT/PER/DIR (UTC) (F) (DEG/KT/KT) (MB) (FT/S) (FT/S/D) UPR LAKE MARION NOT AVBL WINYAH BAY NOT AVBL LAKE MURRAY 0400 69 70/ 5/ 9 1015.2R ACE BASIN NERRS NOT AVBL FORT PULASKI 0400 77 81 240/ 5/ 7 1015.3F SAPELO ISLAND 0400 72 300/ 1 1016.0R $$ ANZ835-935-AMZ111-154-330-350-352-354-370-450-454-472-030600- ...C-MAN AND BUOY OBSERVATIONS... STATION/POSITION TIME TEMP WIND PRES WAVE SWELL AIR SEA DIR/SP/G HT/PER HT/PER/DIR (UTC) (F) (DEG/KT/KT) (MB) (FT/S) (FT/S/D) BUOY 41004 0450 80 80 190/ 8/ 10 1014.7F 2/ 8 2/ 8 BUOY 41008 0450 76 79 280/ 4/ 6 1015.4S 2/ 8 2/100/ 8 FOLLY BEACH CMAN 0500 78 200/ 7/ 8 1014.9F CAPERS NEARSHORE 0408 79 220/ 10/ 12 1015.1F FRIPP NEARSHORE 0400 79 190/ 10/ 12 1014.5F STATION/POSITION TIME TEMP WIND PRES WAVE SWELL AIR SEA DIR/SP/G HT/PER HT/PER/DIR (UTC) (F) (DEG/KT/KT) (MB) (FT/S) (FT/S/D) 5E ST. MARYS GA 0421 80 N/A 2/ 9 FRYING PAN BUOY 0450 78 77 180/ 14/ 17 1016.0F 3/ 8 2/110/ 8 BUOY 41025 0450 77 81 270/ 2/ 4 1016.2F 3/ 8 3/ 90/ 8 CAPE LOOKOUT NC 0500 75 30/ 6/ 7 1015.9F BUOY 41002 0450 77 77 170/ 8/ 10 1017.2F 3/ 8 3/120/ 8 BUOY 41010 0420 79 81 150/ 8/ 10 1016.1F ST AUGUSTINE FL 0500 69 76 240/ 3/ 5 1016.2S $$

USA.gov is the U.S. government's official web portal to all federal, state and local government web resources and services.